sat.trackr.live / text

‹ back to catalog

PRAETORIAN SDA_601

NORAD 65585 · 2025-203W

PAYLOAD ACTIVE UNKNOWN

§ Identity

Operator
Country
US
Launch date
2025-09-10
Launch site
AFWTR
Launch vehicle
Mass (kg)
RCS (m²)

Purposes: military

External: N2YO · Heavens-Above · Gunter

§ Orbital elements

Epoch: 2026-05-25T03:04:59.698272Z

Period
104.10 min
Inclination
81.3059°
Eccentricity
0.0004536
Mean motion
13.83270219 rev/d
Perigee alt
949.0 km
Apogee alt
955.6 km
Semi-major
7,330.4 km
B*
1.1746e-4
RAAN
32.3384°
Arg perigee
268.6636°
Mean anomaly
91.4001°
Rev number
3,549

§ Raw data

PRAETORIAN SDA_6011 65585U 25203W   26145.12846873  .00000141  00000+0  11746-3 0  99952 65585  81.3059  32.3384 0004536 268.6636  91.4001 13.83270219 35497

JSON: /api/v1/satellites/65585 · /tle

For live sub-satellite position, see the globe view (requires WebGL).

§ Visibility from observer

Set your observer location to see the next 7 days of passes ≥ 10°. The values pass through the URL so the page stays shareable.

No JS? Fill the form by hand. The geolocation button needs JavaScript.